• In Latvia
  • List of Countries
  • For 7 days
  • Water Temperature
  • Satellite Maps
  • Weather Map
  • Weather Widgets
  • user-avatar
    Login

    Hourly Weather Nemchino

    Today, 21 May, Monday

    Time Temperature Precipitation Wind Pressure Humidity
    00:00 +7°C° 0 mm 1 mps 749 mmHg 74%
    01:00 +7°C° 0 mm 1 mps 750 mmHg 75%
    02:00 +6°C° 0 mm 1 mps 750 mmHg 82%
    03:00 +6°C° 0 mm 1 mps 750 mmHg 80%
    04:00 +7°C° 0 mm 1 mps 750 mmHg 78%
    05:00 +8°C° 0 mm 1 mps 751 mmHg 76%
    06:00 +10°C° 0 mm 1 mps 751 mmHg 68%
    07:00 +13°C° 0 mm 1 mps 751 mmHg 60%
    08:00 +15°C° 0 mm 1 mps 751 mmHg 52%
    09:00 +17°C° 0 mm 2 mps 752 mmHg 48%
    10:00 +18°C° 0 mm 2 mps 752 mmHg 44%
    11:00 +19°C° 0 mm 3 mps 752 mmHg 39%
    12:00 +20°C° 0 mm 3 mps 751 mmHg 39%
    13:00 +20°C° 0 mm 3 mps 751 mmHg 39%
    14:00 +21°C° 0 mm 3 mps 751 mmHg 38%
    15:00 +20°C° 0 mm 3 mps 751 mmHg 41%
    16:00 +20°C° 0 mm 3 mps 751 mmHg 44%
    17:00 +20°C° 0 mm 3 mps 751 mmHg 48%
    18:00 +18°C° 0 mm 2 mps 751 mmHg 56%
    19:00 +16°C° 0 mm 2 mps 751 mmHg 64%
    20:00 +13°C° 0 mm 2 mps 751 mmHg 72%
    21:00 +13°C° 0 mm 1 mps 751 mmHg 75%
    22:00 +12°C° 0 mm 1 mps 751 mmHg 78%
    23:00 +11°C° 0 mm 1 mps 751 mmHg 80%

    Tomorrow, 22 May, Tuesday

    Time Temperature Precipitation Wind Pressure Humidity
    00:00 +10°C° 0 mm 1 mps 751 mmHg 82%
    01:00 +10°C° 0 mm 1 mps 751 mmHg 83%
    02:00 +9°C° 0 mm 1 mps 752 mmHg 85%
    03:00 +9°C° 0 mm 2 mps 751 mmHg 83%
    04:00 +9°C° 0 mm 2 mps 751 mmHg 81%
    05:00 +10°C° 0 mm 2 mps 751 mmHg 80%
    06:00 +12°C° 0 mm 2 mps 751 mmHg 73%
    07:00 +13°C° 0 mm 3 mps 751 mmHg 67%
    08:00 +16°C° 0 mm 3 mps 751 mmHg 61%
    09:00 +14°C° 0.2 mm 3 mps 751 mmHg 65%
    10:00 +14°C° 0.2 mm 3 mps 750 mmHg 69%
    11:00 +15°C° 0.2 mm 2 mps 750 mmHg 73%
    12:00 +15°C° 0 mm 2 mps 750 mmHg 73%
    13:00 +14°C° 0 mm 3 mps 750 mmHg 73%
    14:00 +16°C° 0 mm 3 mps 749 mmHg 72%
    15:00 +16°C° 0.1 mm 3 mps 749 mmHg 75%
    16:00 +16°C° 0.1 mm 3 mps 749 mmHg 77%
    17:00 +16°C° 0.1 mm 3 mps 748 mmHg 80%
    18:00 +15°C° 0.1 mm 2 mps 748 mmHg 85%
    19:00 +15°C° 0.1 mm 2 mps 747 mmHg 90%
    20:00 +14°C° 0.1 mm 1 mps 747 mmHg 94%
    21:00 +14°C° 0.1 mm 1 mps 747 mmHg 95%
    22:00 +14°C° 0.1 mm 1 mps 747 mmHg 96%
    23:00 +14°C° 0.1 mm 1 mps 747 mmHg 97%

    Day after tomorrow, 23 May, Wednesday

    Time Temperature Precipitation Wind Pressure Humidity
    00:00 +13°C° 0 mm 1 mps 747 mmHg 98%
    01:00 +13°C° 0 mm 1 mps 746 mmHg 98%
    02:00 +12°C° 0 mm 1 mps 746 mmHg 98%
    03:00 +13°C° 0 mm 1 mps 746 mmHg 98%
    04:00 +13°C° 0 mm 1 mps 746 mmHg 97%
    05:00 +13°C° 0 mm 1 mps 746 mmHg 97%
    06:00 +14°C° 0 mm 1 mps 747 mmHg 92%
    07:00 +16°C° 0 mm 1 mps 747 mmHg 86%
    08:00 +18°C° 0 mm 1 mps 747 mmHg 81%
    09:00 +18°C° 0 mm 2 mps 747 mmHg 73%
    10:00 +20°C° 0 mm 2 mps 747 mmHg 65%
    11:00 +21°C° 0 mm 2 mps 746 mmHg 57%
    12:00 +21°C° 0.2 mm 2 mps 746 mmHg 58%
    13:00 +21°C° 0.2 mm 2 mps 746 mmHg 59%
    14:00 +23°C° 0.2 mm 2 mps 746 mmHg 60%
    15:00 +21°C° 1.1 mm 2 mps 745 mmHg 67%
    16:00 +20°C° 1.1 mm 2 mps 745 mmHg 74%
    17:00 +19°C° 1.1 mm 2 mps 745 mmHg 81%
    18:00 +18°C° 0.6 mm 1 mps 745 mmHg 85%
    19:00 +16°C° 0.6 mm 1 mps 745 mmHg 88%
    20:00 +15°C° 0.6 mm 1 mps 745 mmHg 92%
    21:00 +14°C° 0.2 mm 1 mps 745 mmHg 93%
    22:00 +13°C° 0.2 mm 1 mps 745 mmHg 95%
    23:00 +13°C° 0.2 mm 1 mps 745 mmHg 96%

    24 May, Thursday

    Time Temperature Precipitation Wind Pressure Humidity
    00:00 +12°C° 0 mm 2 mps 745 mmHg 96%
    01:00 +12°C° 0 mm 2 mps 745 mmHg 97%
    02:00 +10°C° 0 mm 2 mps 745 mmHg 97%
    03:00 +12°C° 0 mm 2 mps 745 mmHg 96%
    04:00 +12°C° 0 mm 2 mps 746 mmHg 95%
    05:00 +12°C° 0 mm 2 mps 746 mmHg 95%
    06:00 +14°C° 0 mm 2 mps 746 mmHg 89%
    07:00 +14°C° 0 mm 3 mps 746 mmHg 84%
    08:00 +17°C° 0 mm 3 mps 746 mmHg 79%
    09:00 +18°C° 0 mm 3 mps 747 mmHg 71%
    10:00 +19°C° 0 mm 3 mps 747 mmHg 64%
    11:00 +21°C° 0 mm 3 mps 747 mmHg 56%
    12:00 +21°C° 0.1 mm 3 mps 747 mmHg 55%
    13:00 +21°C° 0.1 mm 4 mps 747 mmHg 55%
    14:00 +22°C° 0.1 mm 4 mps 747 mmHg 54%
    15:00 +21°C° 0.3 mm 4 mps 747 mmHg 59%
    16:00 +20°C° 0.3 mm 4 mps 747 mmHg 65%
    17:00 +19°C° 0.3 mm 4 mps 747 mmHg 70%
    18:00 +18°C° 0 mm 3 mps 747 mmHg 76%
    19:00 +16°C° 0 mm 3 mps 748 mmHg 82%
    20:00 +14°C° 0 mm 2 mps 748 mmHg 88%
    21:00 +12°C° 0 mm 3 mps 749 mmHg 85%
    22:00 +11°C° 0 mm 3 mps 749 mmHg 82%
    23:00 +10°C° 0 mm 3 mps 750 mmHg 79%

    25 May, Friday

    Time Temperature Precipitation Wind Pressure Humidity
    00:00 +9°C° 0 mm 3 mps 750 mmHg 77%
    01:00 +8°C° 0 mm 3 mps 750 mmHg 75%
    02:00 +7°C° 0 mm 3 mps 751 mmHg 73%
    03:00 +7°C° 0 mm 3 mps 751 mmHg 71%
    04:00 +7°C° 0 mm 3 mps 751 mmHg 70%
    05:00 +7°C° 0 mm 3 mps 752 mmHg 68%
    06:00 +7°C° 0 mm 4 mps 752 mmHg 61%
    07:00 +10°C° 0 mm 4 mps 752 mmHg 55%
    08:00 +11°C° 0 mm 4 mps 753 mmHg 48%
    09:00 +12°C° 0 mm 4 mps 753 mmHg 45%
    10:00 +12°C° 0 mm 4 mps 753 mmHg 43%
    11:00 +13°C° 0 mm 4 mps 753 mmHg 40%
    12:00 +14°C° 0 mm 4 mps 753 mmHg 39%
    13:00 +14°C° 0 mm 4 mps 753 mmHg 39%
    14:00 +14°C° 0 mm 4 mps 753 mmHg 38%
    15:00 +14°C° 0 mm 4 mps 753 mmHg 39%
    16:00 +14°C° 0 mm 4 mps 753 mmHg 40%
    17:00 +14°C° 0 mm 4 mps 753 mmHg 42%
    18:00 +12°C° 0 mm 3 mps 753 mmHg 49%
    19:00 +10°C° 0 mm 2 mps 753 mmHg 56%
    20:00 +9°C° 0 mm 2 mps 753 mmHg 63%
    21:00 +9°C° 0 mm 1 mps 753 mmHg 65%
    22:00 +8°C° 0 mm 1 mps 754 mmHg 67%
    23:00 +7°C° 0 mm 1 mps 754 mmHg 68%

    26 May, Saturday

    Time Temperature Precipitation Wind Pressure Humidity
    00:00 +7°C° 0 mm 1 mps 754 mmHg 69%
    01:00 +6°C° 0 mm 1 mps 754 mmHg 70%
    02:00 +6°C° 0 mm 1 mps 754 mmHg 71%
    03:00 +6°C° 0 mm 1 mps 755 mmHg 70%
    04:00 +7°C° 0 mm 1 mps 755 mmHg 69%
    05:00 +8°C° 0 mm 1 mps 755 mmHg 67%
    06:00 +10°C° 0 mm 1 mps 755 mmHg 60%
    07:00 +12°C° 0 mm 2 mps 755 mmHg 52%
    08:00 +14°C° 0 mm 2 mps 755 mmHg 45%
    09:00 +16°C° 0 mm 2 mps 755 mmHg 43%
    10:00 +17°C° 0 mm 2 mps 755 mmHg 40%
    11:00 +18°C° 0 mm 2 mps 754 mmHg 38%
    12:00 +19°C° 0 mm 2 mps 754 mmHg 39%
    13:00 +19°C° 0 mm 2 mps 754 mmHg 40%
    14:00 +20°C° 0 mm 3 mps 753 mmHg 41%
    15:00 +19°C° 0 mm 3 mps 753 mmHg 44%
    16:00 +19°C° 0 mm 3 mps 753 mmHg 47%
    17:00 +19°C° 0 mm 3 mps 752 mmHg 50%
    18:00 +18°C° 0 mm 2 mps 752 mmHg 54%
    19:00 +16°C° 0 mm 2 mps 752 mmHg 59%
    20:00 +15°C° 0 mm 2 mps 752 mmHg 64%
    21:00 +14°C° 0 mm 2 mps 752 mmHg 63%
    22:00 +14°C° 0 mm 2 mps 752 mmHg 63%
    23:00 +13°C° 0 mm 3 mps 751 mmHg 63%
    Show more